Wind_Speed
42 42 42 41 41 42 42 43 44 44 44 43 43 43 42 41 42 42 43 43 42 41 39 35 32 28 26 22 19 17 15 14 15 16 18 21 22 21 19 18 18 17
41 41 41 41 41 41 42 42 42 43 43 43 43 43 42 41 42 42 43 43 43 42 40 37 33 30 27 24 21 18 16 15 15 16 19 21 22 21 20 20 19 19
41 41 41 41 41 41 41 41 42 42 42 43 43 43 43 42 42 42 43 44 44 43 41 39 36 33 29 26 23 20 17 16 16 17 19 22 23 22 21 21 20 20
42 42 41 41 41 41 42 42 42 42 42 43 43 43 44 43 43 43 44 45 45 45 43 40 37 34 31 28 24 22 19 18 17 18 20 22 23 22 22 21 21 20
43 43 43 43 43 44 44 44 43 43 43 43 43 44 44 43 43 44 45 46 47 46 44 41 39 36 32 29 26 23 21 19 18 18 20 23 24 23 22 21 21 20
45 45 45 45 45 46 46 46 45 45 45 44 44 44 44 43 43 43 44 46 47 47 45 42 40 37 34 31 28 25 22 20 19 20 21 23 24 23 22 21 21 20
48 47 48 48 48 48 48 48 47 47 47 46 46 45 45 45 44 43 43 44 45 46 45 43 42 39 36 33 30 27 24 22 21 21 22 23 23 23 21 20 20 20
50 50 51 51 51 51 51 50 49 49 49 49 48 47 46 46 45 43 43 43 45 46 46 45 43 40 37 34 31 28 25 23 22 22 23 24 23 22 21 20 20 19
52 53 53 53 53 53 53 52 51 51 52 51 50 49 48 48 46 45 44 44 44 46 46 46 44 41 38 35 32 29 26 24 23 23 23 24 23 21 21 20 20 19
55 55 56 56 56 55 54 54 53 53 53 52 51 51 50 49 48 46 45 44 45 46 47 47 45 42 39 36 32 29 27 25 24 24 24 24 22 21 20 20 20 19
56 57 57 57 56 56 56 55 54 54 54 53 52 52 51 50 49 47 46 45 45 47 48 48 46 44 40 37 34 30 28 27 26 25 25 23 22 21 20 20 19 18
57 58 59 59 59 58 57 56 56 55 55 55 54 53 52 51 49 48 47 46 45 47 48 48 47 45 42 38 35 32 30 28 27 26 25 23 22 21 20 19 18 18
55 56 56 59 61 60 58 57 57 56 56 56 54 53 52 51 50 49 47 45 45 46 47 48 48 46 43 39 36 33 31 29 28 27 25 23 21 20 19 19 18 17
50 50 51 54 58 59 59 58 57 57 56 55 54 53 52 51 50 48 46 45 45 45 47 48 48 47 43 40 38 35 32 31 29 27 25 23 21 20 19 18 18 16
47 48 49 51 54 56 58 58 57 57 55 54 53 52 51 51 49 47 46 45 45 46 48 49 49 46 43 41 39 36 34 31 29 27 24 22 21 20 18 18 16 15
48 49 50 50 52 53 55 57 57 56 54 52 51 50 50 49 48 47 46 45 45 47 49 50 49 46 44 42 40 36 34 31 29 27 24 23 21 19 18 17 15 15
51 51 50 50 50 52 54 56 56 54 52 50 49 49 49 49 48 47 46 46 47 48 49 50 49 47 45 42 40 37 35 32 29 27 25 23 21 19 17 16 16 16
53 53 52 51 50 51 53 53 53 52 50 49 48 48 48 48 48 48 47 47 47 48 49 50 49 47 45 43 41 38 35 32 29 27 24 22 21 19 17 16 16 16
54 53 53 52 50 50 50 50 50 49 48 47 47 47 47 48 48 47 47 47 47 47 49 50 49 47 45 43 40 37 34 31 28 26 24 22 21 19 17 17 16 16
52 53 53 51 50 48 48 48 47 47 46 46 46 46 47 47 47 47 46 46 47 47 48 49 48 46 43 41 38 35 32 30 27 25 23 22 20 19 18 17 16 16
50 51 51 50 48 47 46 45 45 45 45 45 45 45 46 46 46 46 45 45 46 46 47 48 46 44 42 40 37 34 32 30 27 25 23 21 20 19 18 17 16 16
47 47 48 47 46 45 45 44 44 44 44 44 44 44 44 44 44 44 44 44 45 46 47 47 45 43 41 39 36 34 33 31 28 25 22 21 21 20 18 17 17 18
43 44 44 44 44 44 43 43 42 42 43 43 43 43 44 44 44 44 43 43 44 45 47 47 45 43 41 38 35 34 34 32 27 24 23 21 21 20 19 18 18 19
39 41 41 42 43 42 41 41 41 41 42 41 41 42 42 42 42 42 42 42 43 44 46 46 44 43 40 37 35 35 34 31 26 24 23 22 21 20 19 19 19 20
36 38 40 41 41 40 39 40 40 40 40 40 40 40 39 40 41 41 42 42 43 44 45 45 44 42 40 37 35 35 34 29 26 24 23 22 22 20 19 19 20 20
32 35 37 39 39 39 39 39 39 39 38 38 38 38 38 39 40 41 42 42 42 44 46 45 44 42 39 37 35 35 33 29 26 25 24 22 22 20 20 20 21 19
Wind_Direction
239 240 240 241 241 242 242 242 243 243 244 245 245 243 241 239 236 233 232 232 231 230 230 230 230 230 233 235 237 243 252 260 269 277 282 283 282 282 285 289 291 290
236 237 238 238 239 239 240 241 242 243 244 246 247 246 244 241 238 235 234 233 231 230 229 229 229 230 232 234 236 240 247 256 264 272 278 280 279 280 282 285 287 287
233 233 233 233 234 235 237 239 240 241 244 246 247 247 245 242 240 237 235 233 231 230 229 228 228 229 231 232 234 238 243 251 259 267 274 277 276 275 278 281 283 283
230 230 230 231 233 235 237 238 238 239 241 244 246 247 246 244 241 239 236 234 231 229 228 228 228 228 229 230 232 236 240 246 254 263 269 272 272 272 274 277 280 280
229 229 229 231 233 235 237 237 237 238 240 242 245 246 246 245 242 240 238 236 232 229 227 227 227 227 228 229 231 234 238 243 251 259 265 269 269 270 272 275 278 278
230 230 230 231 233 235 236 236 237 238 240 241 244 245 246 246 244 242 240 238 235 230 228 227 227 226 227 229 231 233 236 241 248 254 261 265 266 267 271 275 277 275
232 231 232 233 235 235 237 237 238 240 241 242 243 245 246 246 245 242 240 239 237 233 229 228 228 227 227 229 230 233 235 239 245 251 258 262 264 267 270 274 274 272
234 234 235 236 236 236 237 238 239 241 242 243 243 244 246 246 245 243 240 238 237 234 230 229 229 229 229 230 231 233 235 238 243 249 255 260 262 265 269 271 271 268
236 237 237 238 238 238 239 239 241 242 243 244 244 245 246 246 245 243 240 238 237 234 231 230 230 230 231 231 232 234 235 238 243 248 253 257 260 264 268 269 269 267
240 239 239 239 239 240 241 242 243 244 245 246 246 246 246 245 245 242 240 238 236 234 232 230 230 231 231 232 232 234 235 238 242 247 251 255 258 262 266 267 266 266
242 241 240 240 240 242 243 244 245 245 246 247 246 246 245 245 244 241 239 237 235 234 232 231 231 231 232 233 233 234 235 237 241 246 251 254 257 260 263 264 264 264
243 243 242 242 242 243 244 246 246 246 247 246 246 246 245 244 243 241 239 238 236 234 233 231 231 231 232 233 234 234 235 237 241 245 249 251 254 257 259 260 261 261
247 247 248 248 246 245 245 246 247 247 247 247 246 245 244 243 242 240 239 238 236 235 233 231 230 230 232 232 232 234 235 238 241 244 247 249 251 254 255 256 258 259
249 250 252 252 250 247 245 246 247 247 247 247 245 245 244 243 242 240 239 237 235 234 233 231 229 229 231 231 232 234 235 237 240 243 245 246 249 252 252 253 257 260
251 250 251 251 250 248 246 245 246 246 246 246 245 244 243 242 241 240 239 236 234 232 231 230 229 229 231 232 233 235 235 237 239 240 243 244 246 248 248 251 255 260
251 249 250 250 249 248 246 245 245 244 245 245 245 243 242 240 239 237 237 235 233 232 230 229 228 229 230 231 233 234 235 236 237 238 239 241 242 243 245 249 254 258
249 247 248 249 248 247 245 244 243 243 243 243 243 242 240 238 237 236 235 234 233 232 231 229 229 228 229 230 232 233 234 235 235 236 236 237 238 240 243 248 254 259
247 246 245 246 247 247 245 243 242 242 242 242 242 241 239 237 235 235 234 233 232 232 231 230 229 228 228 230 232 233 233 233 232 232 233 234 234 238 243 248 254 258
247 246 245 245 246 247 245 243 242 241 242 242 241 239 237 235 235 234 233 232 232 231 231 230 229 227 228 229 231 231 231 230 230 230 231 233 235 240 244 248 255 262
247 246 245 244 245 245 244 242 241 241 241 241 239 237 236 234 234 233 232 232 232 231 231 229 227 226 227 228 229 230 229 227 227 228 229 232 237 242 246 252 262 272
248 245 244 244 243 243 242 241 240 240 240 239 238 236 236 235 234 233 232 232 231 230 230 228 225 224 225 227 227 228 227 225 224 226 229 233 238 245 254 263 272 280
248 246 244 243 242 242 241 239 239 239 239 238 236 235 234 233 233 233 232 231 230 229 228 225 223 223 224 225 226 226 226 224 223 226 231 236 242 252 261 269 275 279
249 246 245 243 241 240 239 239 239 239 238 237 234 233 231 231 231 231 231 231 230 229 227 223 221 222 223 224 224 224 226 227 226 228 233 238 245 253 260 266 272 276
250 247 244 242 241 240 240 239 239 238 238 236 234 233 232 232 232 231 230 230 230 229 226 222 221 221 223 223 222 223 226 227 228 230 234 238 244 251 258 263 268 271
252 248 245 243 241 240 240 240 239 238 237 235 233 232 233 233 232 231 230 229 228 227 224 220 220 221 222 223 222 223 225 226 227 230 232 237 244 250 255 260 263 267
256 252 248 245 243 242 241 240 239 238 237 235 233 232 232 233 232 230 229 227 226 225 222 219 219 221 222 222 221 223 226 225 225 229 232 237 243 247 252 257 261 265
Height
1433 1434 1436 1438 1439 1441 1442 1443 1445 1447 1448 1450 1452 1455 1458 1461 1463 1465 1466 1468 1471 1474 1476 1478 1479 1480 1481 1482 1482 1483 1484 1484 1485 1485 1486 1486 1485 1485 1485 1484 1484 1484
1429 1431 1433 1435 1435 1437 1438 1439 1441 1443 1444 1446 1448 1451 1454 1457 1459 1461 1462 1464 1466 1469 1471 1473 1475 1476 1478 1478 1479 1480 1480 1481 1482 1482 1483 1483 1483 1482 1482 1482 1482 1482
1425 1426 1428 1430 1431 1432 1434 1435 1437 1438 1440 1442 1444 1446 1449 1452 1454 1456 1458 1460 1461 1464 1466 1468 1470 1472 1474 1474 1475 1476 1476 1477 1478 1479 1480 1480 1480 1480 1480 1480 1479 1479
1419 1421 1423 1425 1427 1429 1430 1432 1433 1434 1435 1437 1439 1442 1444 1447 1450 1452 1454 1456 1457 1459 1461 1463 1465 1467 1469 1470 1471 1472 1472 1473 1474 1475 1476 1476 1476 1476 1477 1477 1477 1476
1415 1417 1418 1421 1422 1424 1426 1427 1428 1429 1431 1433 1435 1437 1440 1443 1446 1448 1450 1452 1454 1456 1457 1459 1461 1463 1465 1466 1467 1468 1468 1468 1469 1471 1472 1472 1473 1473 1473 1474 1474 1474
1411 1412 1414 1415 1417 1420 1421 1422 1424 1425 1427 1428 1430 1433 1435 1438 1442 1445 1447 1449 1451 1453 1454 1455 1457 1458 1460 1462 1463 1463 1463 1464 1465 1466 1468 1469 1469 1470 1470 1470 1471 1470
1407 1408 1409 1410 1412 1414 1416 1418 1420 1421 1422 1424 1426 1428 1430 1433 1437 1440 1443 1445 1448 1450 1452 1453 1454 1455 1456 1457 1458 1459 1459 1460 1460 1462 1464 1465 1465 1466 1466 1467 1467 1467
1402 1402 1403 1405 1407 1409 1410 1413 1415 1416 1418 1419 1421 1423 1425 1428 1431 1435 1438 1441 1443 1446 1448 1450 1451 1452 1453 1454 1455 1455 1455 1456 1456 1458 1460 1461 1462 1462 1463 1463 1463 1464
1395 1396 1398 1399 1401 1403 1405 1407 1410 1411 1413 1414 1416 1419 1421 1423 1426 1430 1433 1436 1439 1442 1444 1446 1448 1449 1450 1451 1451 1452 1452 1453 1453 1454 1456 1457 1458 1459 1459 1460 1460 1460
1388 1390 1391 1393 1395 1397 1399 1402 1404 1406 1407 1410 1412 1414 1416 1419 1422 1425 1428 1430 1434 1437 1439 1442 1444 1445 1447 1447 1448 1449 1449 1449 1450 1451 1452 1453 1455 1455 1456 1456 1456 1456
1382 1383 1385 1387 1389 1391 1393 1396 1398 1400 1402 1404 1407 1408 1411 1414 1417 1419 1422 1425 1428 1431 1434 1437 1439 1441 1443 1444 1445 1445 1445 1446 1447 1448 1449 1450 1451 1452 1452 1452 1452 1452
1376 1377 1379 1381 1383 1384 1387 1390 1391 1393 1395 1398 1400 1403 1405 1408 1411 1414 1417 1420 1423 1426 1429 1432 1435 1437 1438 1439 1440 1441 1441 1442 1443 1445 1446 1447 1447 1448 1448 1449 1449 1449
1370 1372 1374 1375 1376 1378 1381 1383 1384 1386 1388 1391 1394 1397 1399 1402 1405 1408 1412 1415 1418 1421 1425 1427 1430 1431 1433 1435 1436 1437 1438 1438 1440 1442 1443 1443 1444 1444 1445 1445 1445 1446
1365 1367 1368 1369 1370 1372 1374 1376 1378 1380 1382 1385 1388 1390 1393 1396 1399 1403 1407 1410 1413 1417 1420 1422 1424 1426 1428 1430 1432 1433 1434 1435 1436 1438 1439 1440 1441 1441 1442 1442 1441 1442
1360 1361 1362 1363 1365 1366 1367 1369 1371 1373 1376 1379 1381 1384 1387 1391 1394 1398 1401 1405 1408 1411 1414 1416 1418 1421 1423 1426 1427 1428 1430 1431 1433 1434 1435 1436 1437 1438 1438 1438 1438 1438
1355 1355 1357 1358 1359 1360 1362 1364 1365 1368 1370 1373 1375 1378 1382 1385 1389 1392 1395 1399 1403 1405 1408 1410 1413 1416 1419 1421 1422 1424 1425 1427 1428 1430 1431 1432 1433 1434 1434 1434 1435 1435
1347 1349 1350 1352 1353 1355 1357 1359 1361 1363 1366 1368 1371 1373 1377 1380 1383 1386 1390 1394 1397 1400 1403 1406 1409 1412 1414 1416 1418 1419 1421 1423 1424 1425 1427 1428 1429 1430 1430 1430 1431 1431
1340 1342 1343 1345 1347 1349 1351 1354 1357 1359 1362 1364 1366 1369 1371 1375 1378 1381 1384 1388 1391 1395 1398 1401 1405 1408 1410 1411 1413 1415 1416 1418 1420 1421 1422 1424 1425 1426 1426 1426 1427 1427
1334 1335 1337 1339 1341 1344 1346 1349 1352 1355 1357 1359 1362 1365 1367 1370 1373 1376 1379 1383 1386 1390 1393 1397 1401 1404 1405 1407 1409 1411 1412 1414 1416 1418 1419 1421 1422 1423 1423 1423 1423 1423
1329 1330 1332 1334 1337 1339 1341 1344 1347 1349 1352 1355 1357 1360 1363 1366 1368 1371 1374 1378 1381 1385 1389 1393 1397 1400 1401 1404 1405 1407 1409 1411 1412 1414 1416 1418 1419 1420 1420 1421 1420 1420
1324 1325 1327 1330 1332 1335 1337 1339 1342 1344 1347 1350 1352 1356 1358 1361 1364 1366 1369 1373 1376 1380 1384 1388 1393 1396 1398 1400 1402 1403 1405 1406 1408 1410 1412 1414 1416 1417 1417 1417 1417 1416
1320 1321 1323 1325 1328 1330 1332 1335 1337 1339 1342 1345 1348 1352 1355 1357 1360 1362 1365 1368 1372 1375 1379 1384 1388 1391 1393 1396 1398 1399 1399 1401 1404 1406 1408 1410 1412 1412 1413 1413 1413 1413
1316 1318 1319 1321 1324 1325 1328 1330 1332 1335 1337 1340 1344 1347 1350 1353 1355 1358 1361 1364 1368 1371 1375 1380 1385 1387 1389 1392 1394 1394 1394 1396 1400 1402 1403 1405 1407 1408 1408 1409 1409 1409
1314 1315 1316 1318 1319 1321 1324 1326 1328 1331 1333 1336 1340 1343 1346 1349 1351 1354 1357 1360 1364 1368 1372 1377 1381 1383 1386 1388 1390 1390 1390 1392 1395 1397 1398 1400 1401 1403 1404 1404 1405 1405
1312 1314 1315 1316 1317 1319 1321 1323 1325 1328 1330 1334 1338 1341 1344 1346 1348 1351 1353 1356 1359 1364 1368 1373 1376 1379 1381 1384 1385 1386 1386 1389 1391 1391 1393 1394 1396 1397 1399 1399 1400 1401
1311 1313 1314 1315 1317 1318 1319 1321 1323 1325 1328 1331 1334 1337 1340 1342 1345 1348 1350 1352 1355 1359 1363 1368 1371 1374 1377 1379 1381 1382 1382 1385 1387 1387 1388 1390 1391 1392 1393 1394 1395 1396